Wind_Speed
7 9 11 12 14 16 18 18 19 21 21 21 19 18 17 17 17 17 17 17 17 17 17 17 16 16 17 17 17 17 17 16 16 17 17 18 18 19 19 20 20 21 21
7 8 10 12 14 15 17 18 18 19 20 20 20 19 18 18 18 18 19 19 19 19 19 19 19 19 19 19 19 20 20 20 20 20 21 21 22 22 22 23 23 24 24
7 8 9 11 13 14 16 17 18 19 20 20 20 20 20 20 20 20 20 20 20 20 21 21 21 22 22 22 22 22 23 23 23 24 24 25 25 26 26 26 26 27 27
8 9 9 10 12 14 15 16 17 18 19 20 20 20 20 20 20 21 21 20 21 21 22 23 24 24 24 24 25 25 25 25 26 27 28 28 29 30 30 30 30 31 31
9 10 11 11 12 14 15 16 16 17 18 19 20 20 20 20 21 21 21 21 22 22 23 23 24 25 25 26 26 27 27 28 29 30 30 30 31 32 32 32 33 33 33
10 11 12 11 12 13 15 16 17 17 18 20 21 21 20 20 21 22 22 23 23 23 23 23 24 25 26 26 27 29 30 30 31 32 32 32 33 34 35 35 35 35 35
12 12 12 12 12 13 14 16 17 18 19 19 19 20 20 21 22 22 23 24 25 26 26 25 26 26 27 28 29 30 31 31 32 33 34 35 35 36 37 37 38 38 38
13 14 14 14 14 14 15 17 18 19 19 19 20 20 22 23 23 24 25 26 26 26 27 27 27 28 29 30 31 32 33 34 35 36 37 37 38 38 39 39 40 41 41
16 16 16 16 16 16 17 18 18 19 20 20 21 22 23 24 25 26 26 27 27 28 28 29 30 30 31 32 33 35 36 37 37 38 39 39 40 41 41 42 43 44 44
18 18 17 17 17 17 18 19 19 20 21 22 23 24 24 24 26 27 28 29 29 30 30 31 32 33 34 35 36 38 39 39 39 40 40 41 42 43 44 45 46 46 47
19 19 18 18 19 20 20 20 21 21 22 23 24 24 25 26 27 27 29 30 32 32 32 34 34 35 36 37 38 39 39 39 40 41 42 43 44 45 47 47 48 49 49
19 18 18 20 19 19 21 22 22 23 23 24 25 26 26 28 29 30 31 32 33 34 35 36 37 38 39 39 39 40 41 41 42 44 45 46 47 48 48 49 50 51 52
21 21 22 21 22 23 22 22 22 24 24 25 27 28 29 30 31 32 32 32 33 34 36 37 38 38 39 39 39 40 43 44 45 46 47 48 49 50 50 51 52 53 54
23 23 23 23 23 23 25 25 25 25 26 28 29 30 31 31 31 32 32 33 34 35 36 38 38 39 39 40 42 44 45 47 49 50 51 51 52 53 53 54 55 55 55
22 22 23 24 24 25 26 26 26 27 28 28 30 31 31 32 32 33 34 34 35 36 38 39 39 41 42 44 45 46 48 49 51 52 53 53 54 55 55 56 56 56 55
23 23 23 24 25 26 27 27 28 29 30 29 30 31 31 32 32 33 34 35 37 38 39 40 41 43 45 46 48 49 51 52 53 53 54 54 54 54 54 54 54 53 53
23 23 24 25 25 26 27 27 27 28 29 30 30 30 31 32 33 34 35 36 38 39 41 42 44 46 47 49 50 51 52 52 53 53 53 53 53 52 51 51 51 50 50
23 23 24 24 24 24 25 25 26 27 28 28 29 30 31 32 34 36 37 39 41 42 44 45 47 48 49 50 51 51 51 51 51 51 51 51 50 49 49 48 47 47 47
23 23 23 22 22 22 23 23 24 25 27 28 30 31 33 34 37 38 40 42 43 45 46 47 48 49 50 51 52 51 51 50 50 49 49 49 48 47 46 46 45 45 45
20 20 20 20 20 21 22 23 25 26 28 30 31 32 34 37 39 40 42 44 45 47 48 49 49 50 50 50 50 49 49 48 47 47 46 45 44 44 43 43 42 43 43
18 19 19 19 21 22 24 25 26 28 29 31 33 35 37 39 40 42 44 45 46 47 47 47 47 47 46 46 45 44 44 43 43 43 42 41 41 40 40 40 40 40 39
17 18 19 19 21 22 24 26 28 30 32 34 36 38 39 41 42 43 44 44 45 45 44 43 43 42 42 41 41 40 40 40 40 39 39 38 38 38 38 38 37 37 36
17 18 19 21 22 24 26 28 30 32 34 36 37 38 39 40 41 42 42 42 41 41 40 39 38 38 39 39 39 39 38 37 37 37 36 36 36 35 35 34 34 33 32
18 20 22 24 25 27 29 31 32 33 34 36 37 38 39 40 40 40 40 39 38 37 37 37 37 37 37 37 37 37 36 35 34 34 33 33 32 32 32 31 30 30 29
20 22 24 26 27 29 30 31 33 34 35 36 37 37 38 38 38 38 37 37 36 35 35 35 35 35 34 34 34 34 33 32 31 30 30 30 29 29 28 27 27 26 26
23 24 26 27 29 30 31 32 34 35 35 35 36 36 36 35 35 35 34 34 33 33 33 32 32 32 32 33 32 32 31 30 29 29 28 27 27 26 26 25 25 24 24
Wind_Direction
235 229 223 218 217 218 217 219 219 219 219 220 220 224 229 232 235 238 242 244 245 247 250 255 259 263 267 269 270 271 273 274 276 278 279 282 283 282 282 283 282 281 279
244 234 228 223 222 221 221 222 222 221 220 222 224 227 233 238 241 243 245 246 249 251 254 257 261 265 268 270 272 274 275 275 277 278 280 281 282 283 283 282 281 280 279
247 236 232 227 225 223 223 224 226 226 222 222 226 232 237 242 245 247 248 250 252 255 258 260 263 266 270 272 274 275 277 278 279 279 280 281 282 282 282 280 279 279 278
251 244 241 237 235 231 228 226 227 229 227 227 230 237 240 243 246 247 248 251 253 257 260 262 263 267 270 272 273 274 276 279 281 282 282 282 282 283 281 279 278 278 277
258 252 245 242 243 239 234 231 230 232 233 231 234 240 242 244 246 246 248 251 255 258 262 264 265 267 269 272 274 275 276 278 280 282 283 283 282 283 282 280 279 279 279
260 253 246 244 245 243 236 234 235 237 238 240 241 243 244 244 246 247 250 254 256 260 263 265 266 268 270 273 275 277 278 279 280 281 282 282 282 282 282 281 280 279 279
262 258 253 251 250 248 241 241 241 241 242 243 244 244 244 246 250 252 255 257 260 262 266 267 268 270 272 275 277 278 279 280 282 283 284 284 284 283 282 281 280 279 278
264 263 258 257 255 254 252 249 250 247 245 245 248 249 250 253 257 258 260 263 265 267 269 270 270 271 273 275 278 279 280 281 282 282 283 284 284 283 283 282 281 280 279
264 265 262 261 261 260 257 254 256 250 250 252 254 256 258 260 262 262 263 266 267 269 271 273 273 273 275 276 278 280 281 281 281 282 282 282 282 282 282 282 281 281 279
264 264 260 258 259 260 258 259 259 257 256 258 258 259 261 263 264 265 264 266 268 271 273 275 277 278 279 280 280 281 281 281 281 282 282 283 283 283 283 283 282 281 280
262 261 260 262 260 261 260 260 259 258 258 260 261 263 264 266 268 268 269 271 273 274 275 276 278 279 280 280 280 281 282 282 282 283 284 284 284 283 283 283 283 281 281
259 261 263 265 266 267 266 263 260 261 259 262 264 266 266 268 271 272 273 274 275 275 277 277 279 280 281 280 281 281 281 281 282 283 284 284 284 284 284 283 283 282 281
260 263 265 269 270 268 268 266 267 268 268 269 270 271 272 272 272 274 273 275 275 277 278 279 279 280 281 282 282 282 283 284 284 285 286 286 285 284 283 282 282 282 281
260 262 265 270 274 274 272 268 269 272 274 275 275 275 275 275 275 275 276 277 279 280 281 282 282 282 282 283 284 284 285 285 285 286 286 286 284 283 282 282 282 281 281
262 263 267 271 274 276 275 271 273 276 276 277 277 277 277 275 277 279 279 280 282 284 284 284 285 285 287 287 287 287 287 287 287 287 287 286 285 284 283 282 282 281 280
262 265 268 271 274 276 276 275 276 276 277 277 276 276 277 279 281 282 283 283 283 285 286 286 287 287 288 288 288 288 288 288 288 288 288 287 287 286 285 285 284 283 282
267 269 271 273 275 277 277 276 276 278 279 278 278 279 280 282 284 285 286 286 286 287 288 288 289 289 289 289 289 289 289 289 289 288 288 288 287 286 286 286 285 285 284
270 272 272 273 276 277 277 276 277 278 279 279 281 283 284 286 287 288 288 288 289 290 290 290 291 291 291 290 290 290 290 289 289 289 289 288 288 287 287 287 286 286 286
271 273 273 275 276 276 276 276 278 281 282 284 286 287 287 288 289 289 289 290 291 292 292 292 292 292 292 292 291 290 290 290 290 290 290 290 289 289 289 289 289 288 288
270 272 273 274 276 277 278 280 282 284 286 286 287 287 289 290 291 292 293 293 294 294 294 294 294 293 293 293 292 292 292 292 292 292 292 291 291 291 291 291 291 290 290
270 273 276 278 280 282 284 285 286 288 287 287 289 290 292 293 294 295 295 295 296 296 296 295 295 294 294 294 294 294 294 295 295 295 294 294 294 293 293 293 293 293 293
275 276 279 281 282 284 286 288 289 289 290 291 293 295 296 296 297 297 297 298 298 298 298 298 297 296 296 297 297 297 298 298 298 297 296 296 296 295 294 294 294 294 294
277 279 281 282 285 288 290 291 292 293 294 295 296 297 298 299 299 299 300 300 301 301 300 300 299 299 299 299 298 300 300 300 299 298 297 297 297 297 297 296 296 296 296
282 284 286 288 290 291 293 294 295 296 297 298 298 299 299 300 301 302 302 302 302 301 301 301 301 301 301 301 301 302 301 301 301 301 299 299 298 299 299 298 297 298 297
287 289 290 291 293 294 295 296 297 298 299 299 300 300 301 302 302 303 303 303 303 302 302 303 303 304 304 305 305 305 304 304 304 303 303 301 300 301 301 301 300 300 301
292 293 294 294 295 296 297 298 298 299 300 300 300 301 302 303 304 304 304 304 304 305 305 305 305 306 308 309 308 308 307 307 306 306 306 305 303 302 302 303 303 303 303
Height
5839 5840 5841 5842 5844 5845 5846 5848 5850 5852 5855 5857 5860 5862 5864 5865 5867 5868 5869 5870 5870 5871 5872 5872 5873 5873 5873 5873 5873 5872 5872 5872 5871 5870 5869 5868 5867 5866 5865 5864 5863 5862 5860
5838 5839 5839 5840 5841 5842 5844 5845 5847 5849 5851 5854 5856 5858 5860 5861 5863 5864 5864 5865 5866 5867 5867 5868 5868 5868 5868 5868 5867 5867 5866 5866 5866 5865 5864 5863 5861 5860 5859 5858 5856 5855 5854
5836 5837 5838 5838 5839 5840 5841 5842 5844 5846 5848 5850 5852 5854 5855 5856 5858 5859 5860 5861 5861 5862 5862 5862 5863 5863 5862 5862 5862 5861 5860 5859 5859 5858 5857 5856 5855 5853 5852 5851 5849 5848 5847
5834 5835 5836 5836 5837 5837 5838 5839 5841 5843 5844 5846 5848 5849 5850 5851 5852 5853 5854 5855 5856 5856 5856 5857 5857 5856 5856 5856 5855 5854 5853 5852 5852 5851 5849 5848 5847 5845 5844 5842 5841 5839 5838
5832 5833 5833 5834 5834 5835 5836 5837 5838 5840 5841 5842 5843 5844 5845 5846 5846 5847 5848 5849 5850 5850 5850 5850 5850 5850 5850 5849 5848 5847 5846 5845 5844 5842 5841 5839 5838 5836 5834 5833 5831 5830 5829
5830 5830 5830 5831 5831 5832 5832 5834 5835 5836 5837 5838 5839 5840 5840 5841 5841 5842 5843 5844 5844 5844 5844 5844 5844 5843 5842 5842 5841 5840 5839 5837 5835 5834 5832 5830 5828 5826 5824 5823 5821 5820 5819
5827 5827 5828 5828 5828 5828 5828 5830 5831 5832 5833 5834 5835 5836 5836 5837 5837 5837 5838 5838 5838 5838 5838 5837 5837 5836 5835 5834 5833 5832 5830 5828 5827 5825 5823 5821 5818 5816 5814 5812 5810 5808 5807
5824 5824 5824 5825 5825 5825 5825 5826 5827 5828 5829 5829 5830 5830 5831 5831 5832 5832 5832 5832 5832 5831 5831 5831 5830 5828 5827 5826 5824 5823 5821 5819 5817 5815 5813 5810 5808 5805 5803 5801 5799 5797 5795
5820 5820 5820 5821 5821 5821 5821 5822 5822 5822 5823 5824 5825 5825 5825 5826 5825 5825 5825 5825 5825 5824 5824 5823 5821 5820 5819 5817 5815 5813 5811 5809 5806 5804 5802 5799 5796 5793 5791 5788 5786 5784 5782
5815 5815 5815 5816 5816 5816 5816 5816 5816 5817 5818 5818 5819 5819 5819 5819 5819 5818 5818 5818 5817 5816 5815 5814 5812 5811 5809 5807 5805 5803 5800 5798 5795 5793 5790 5787 5784 5781 5778 5775 5772 5769 5767
5809 5809 5810 5810 5811 5810 5810 5811 5811 5811 5812 5812 5812 5812 5812 5812 5812 5811 5810 5810 5809 5807 5806 5805 5803 5801 5798 5796 5794 5791 5789 5786 5783 5781 5778 5774 5771 5768 5764 5761 5757 5754 5751
5802 5803 5804 5804 5804 5804 5805 5805 5805 5805 5805 5805 5805 5805 5805 5804 5804 5803 5802 5801 5799 5798 5796 5794 5792 5790 5787 5785 5782 5780 5777 5774 5771 5768 5764 5761 5757 5754 5750 5746 5743 5739 5735
5796 5797 5798 5798 5798 5799 5798 5798 5799 5799 5799 5798 5798 5797 5797 5796 5795 5794 5792 5791 5789 5787 5786 5784 5781 5778 5776 5773 5770 5767 5764 5761 5757 5754 5750 5747 5743 5739 5735 5731 5727 5723 5719
5790 5791 5792 5792 5792 5792 5792 5791 5792 5792 5791 5791 5790 5789 5788 5787 5785 5784 5782 5781 5778 5777 5775 5772 5770 5767 5764 5761 5758 5754 5751 5747 5743 5739 5735 5731 5727 5723 5719 5714 5711 5707 5702
5784 5785 5785 5785 5785 5785 5784 5784 5784 5784 5784 5783 5782 5781 5780 5778 5776 5775 5772 5770 5769 5766 5764 5761 5758 5755 5752 5748 5744 5740 5736 5732 5728 5723 5719 5715 5710 5705 5701 5697 5692 5688 5684
5778 5779 5779 5779 5779 5778 5778 5777 5777 5777 5776 5775 5774 5773 5771 5769 5767 5765 5763 5761 5758 5756 5753 5749 5745 5742 5738 5734 5729 5725 5720 5716 5711 5706 5701 5697 5692 5688 5683 5679 5674 5671 5667
5772 5772 5772 5772 5772 5771 5771 5770 5769 5768 5767 5766 5765 5763 5762 5760 5757 5755 5753 5750 5747 5744 5740 5736 5732 5728 5723 5719 5714 5709 5704 5699 5694 5689 5685 5680 5675 5671 5666 5662 5658 5654 5650
5765 5765 5765 5765 5764 5764 5763 5762 5761 5760 5759 5757 5756 5754 5752 5750 5747 5745 5742 5738 5735 5731 5727 5722 5718 5713 5708 5703 5698 5693 5688 5683 5678 5673 5668 5663 5659 5655 5650 5646 5642 5638 5635
5758 5758 5758 5758 5757 5757 5756 5755 5753 5752 5751 5749 5747 5745 5742 5740 5737 5733 5730 5726 5722 5717 5713 5708 5703 5698 5692 5687 5682 5677 5672 5667 5662 5657 5653 5648 5644 5639 5635 5631 5628 5624 5620
5752 5752 5751 5751 5750 5750 5748 5747 5746 5744 5743 5741 5738 5736 5733 5729 5725 5721 5717 5713 5708 5703 5698 5693 5688 5682 5677 5672 5666 5661 5657 5652 5647 5643 5638 5634 5630 5626 5622 5618 5614 5610 5606
5746 5746 5745 5744 5743 5742 5741 5739 5738 5736 5734 5731 5728 5725 5721 5718 5713 5709 5704 5699 5694 5689 5684 5678 5673 5668 5662 5657 5652 5648 5643 5638 5634 5629 5625 5621 5617 5613 5609 5605 5601 5597 5593
5740 5739 5739 5738 5736 5735 5733 5732 5729 5727 5724 5720 5717 5713 5709 5705 5700 5696 5691 5686 5681 5676 5670 5665 5660 5654 5649 5645 5640 5635 5631 5626 5622 5618 5613 5609 5605 5601 5597 5593 5590 5586 5582
5734 5733 5732 5731 5729 5727 5725 5723 5720 5717 5713 5710 5706 5701 5697 5693 5688 5683 5678 5673 5668 5663 5658 5653 5648 5643 5638 5633 5629 5624 5620 5615 5611 5607 5602 5598 5594 5590 5586 5582 5579 5575 5572
5728 5726 5725 5723 5721 5719 5716 5713 5710 5707 5703 5699 5695 5690 5686 5681 5676 5671 5666 5662 5657 5652 5647 5642 5637 5633 5628 5623 5618 5614 5609 5605 5601 5596 5592 5588 5584 5580 5577 5573 5569 5566 5562
5721 5719 5717 5715 5713 5710 5707 5704 5700 5696 5692 5688 5684 5679 5675 5670 5665 5660 5656 5651 5647 5642 5637 5633 5628 5623 5619 5614 5609 5605 5600 5596 5591 5587 5583 5579 5575 5572 5568 5564 5561 5557 5554
5714 5712 5710 5707 5704 5701 5697 5694 5690 5686 5682 5678 5673 5669 5664 5660 5655 5651 5646 5642 5637 5633 5628 5624 5619 5615 5610 5606 5601 5596 5592 5587 5583 5579 5575 5571 5568 5564 5560 5557 5554 5551 5548